SCP
0 0 0 0 0 0 -0 -0 -0 -0 -0 -0 -0 0 0 0 0 0 0 0 0 0 0 0 0 0 0 0 0 0 0 0 0 -0 -0 -0 -0 0 0 0 0 0 -0 0 0 0 0 -0 0 0 0 0 0 0
0 0 0 0 0 0 -0 -0 -0 0 -0 -0 -0 0 0 0 0 0 0 0 0 0 0 0 0 0 0 0 0 0 0 0 0 0 -0 -0 -0 -0 0 0 0 0 0 0 0 0 0 0 0 0 0 0 0 0
0 0 0 0 0 0 0 0 0 0 -0 -0 0 0 -0 0 0 0 0 0 0 0 0 0 0 0 0 0 0 0 0 0 0 0 0 -0 -0 0 0 0 0 0 0 0 0 0 0 0 -0 0 0 0 0 0
0 0 0 0 0 0 0 0 0 -0 0 -0 0 -0 0 0 0 0 0 0 0 0 0 0 0 0 0 0 0 0 0 0 0 0 0 0 -0 -0 0 0 0 0 0 0 0 0 0 0 -0 0 0 0 -0 0
0 0 0 0 0 0 0 0 0 0 0 0 0 -0 0 -0 -0 0 0 0 0 0 0 0 0 0 0 0 0 0 0 0 0 0 0 0 -0 0 0 0 0 0 0 0 0 0 0 0 0 0 0 -0 0 0
0 0 0 0 0 0 0 0 0 0 0 0 -0 -0 -0 -0 -0 0 0 0 0 0 0 0 0 0 0 0 0 0 0 0 0 0 0 0 0 0 0 0 0 0 0 0 0 0 0 -0 -0 0 -0 0 -0 -0
0 0 0 0 0 0 0 0 0 0 0 0 -0 -0 0 0 0 0 0 0 0 0 0 0 0 0 0 0 0 0 0 0 0 0 0 0 0 0 0 0 0 0 0 0 0 -0 -0 -0 -0 -0 -0 -0 -0 0
0 0 0 0 0 0 0 0 -0 0 0 -0 -0 -0 0 -0 0 0 0 0 0 0 0 0 0 0 0 0 0 0 0 0 0 0 0 0 0 0 0 0 0 0 -0 -0 -0 -0 -0 -0 0 0 -0 -0 0 0
0 0 0 0 0 0 0 0 -0 0 0 -0 -0 -0 0 0 0 0 0 0 0 0 0 0 0 0 0 0 0 0 0 0 0 0 0 0 0 0 0 0 0 0 -0 0 0 0 0 0 0 0 0 0 0 0
0 0 0 0 0 0 0 0 0 -0 -0 0 0 0 0 0 0 0 0 0 0 0 0 0 0 0 0 0 0 0 0 0 0 0 0 0 0 0 0 0 0 0 0 0 0 0 0 0 0 0 0 0 0 0
0 0 0 0 0 0 0 0 -0 -0 0 0 0 0 0 0 0 0 0 0 0 0 0 0 0 0 0 0 0 0 0 0 0 0 0 0 0 -0 -0 0 0 0 0 0 0 0 0 0 0 0 0 0 0 0
0 0 0 0 0 0 0 -0 -0 0 0 0 0 0 0 0 0 0 0 0 0 0 0 0 0 0 0 0 0 0 0 0 0 0 0 0 0 0 0 -0 0 0 0 0 0 0 0 0 0 0 0 0 0 0
0 0 0 0 0 -0 -0 -0 0 0 0 0 0 0 0 0 0 0 0 0 0 0 0 0 0 0 0 0 0 0 0 0 0 0 0 -0 0 0 -0 -0 0 0 0 0 0 0 0 0 0 0 0 0 0 0
0 0 0 0 -0 -0 -0 -0 -0 0 0 0 0 0 0 0 0 0 0 0 0 0 0 0 0 0 0 0 0 0 0 0 0 0 0 0 0 0 0 0 0 0 0 0 0 0 0 0 0 0 0 0 0 0
0 0 0 0 -0 -0 -0 0 0 0 0 0 0 0 0 0 0 0 0 0 0 0 0 0 0 0 0 0 0 0 0 0 0 0 0 0 0 0 0 0 0 0 0 0 0 0 0 0 0 0 0 0 0 0
0 0 0 -0 0 0 0 0 0 0 0 0 0 0 0 0 0 0 0 0 0 0 0 0 0 0 0 0 0 0 0 0 0 0 0 0 0 0 0 0 0 0 0 0 0 0 0 0 0 0 0 0 0 0
0 0 0 0 0 0 0 0 0 0 0 0 0 0 0 0 0 0 0 0 0 0 0 0 0 0 0 0 0 0 0 0 0 0 0 0 0 0 0 0 0 0 0 0 0 0 0 0 0 0 0 0 0 0
0 0 0 0 0 0 0 0 0 0 0 0 0 0 0 0 0 0 0 0 0 0 0 0 0 0 0 0 0 0 0 0 0 0 0 0 0 0 0 0 0 0 0 0 0 0 0 0 0 0 0 0 0 0
0 0 0 0 0 0 0 0 0 0 0 0 0 0 0 0 0 0 0 0 0 0 0 0 0 0 0 0 -0 0 0 0 0 0 0 0 0 0 0 0 0 0 0 0 0 0 0 0 0 0 0 0 0 0
0 0 0 0 0 0 0 0 0 0 0 0 0 0 0 0 0 0 0 0 0 0 0 0 0 0 0 0 0 0 0 0 0 0 0 0 0 0 0 0 0 0 0 0 0 0 0 0 0 0 0 0 0 0
0 0 0 0 0 0 0 0 0 0 0 0 0 0 0 0 0 0 0 0 0 0 0 0 0 0 0 0 0 0 0 0 0 0 0 0 0 0 0 0 0 0 0 0 0 0 0 0 0 0 0 0 0 0
0 0 0 0 0 0 0 0 0 0 0 0 0 0 0 0 0 0 0 0 0 0 0 0 0 0 0 0 0 0 0 0 0 0 0 0 0 0 0 0 0 0 0 0 0 0 0 0 0 0 0 0 0 0
0 0 0 0 0 0 0 0 0 0 0 0 0 0 0 0 0 0 0 0 0 0 0 0 0 0 0 0 0 0 0 0 0 0 0 0 0 0 0 0 0 0 0 0 0 0 0 0 0 0 0 0 0 0
0 0 0 0 0 0 0 0 0 0 0 0 0 0 0 0 0 0 0 0 0 0 0 0 0 0 0 0 0 0 0 0 0 0 0 0 0 0 0 0 0 0 0 0 0 0 0 0 0 0 0 0 0 0
0 0 0 0 0 0 0 0 0 0 0 0 0 0 0 0 0 0 0 0 0 0 0 0 0 0 0 0 0 0 0 0 0 0 0 0 0 0 0 0 0 0 0 0 0 0 0 0 0 0 0 0 0 0
0 0 0 0 0 0 0 0 0 0 0 0 0 0 0 0 0 0 0 0 0 0 0 0 0 0 0 0 0 0 0 0 0 0 0 0 0 0 0 0 0 0 0 0 0 0 0 0 0 0 0 0 0 0
0 0 0 0 0 0 0 0 0 0 0 0 0 0 0 0 0 0 0 0 0 0 0 0 0 0 0 0 0 0 0 0 0 0 0 0 0 0 0 0 0 0 0 0 0 0 0 0 0 0 0 0 0 0
0 0 0 0 0 0 0 0 0 0 0 0 0 0 0 0 0 0 0 0 0 0 0 0 0 0 0 0 0 0 0 0 0 0 0 0 0 0 0 0 0 0 0 0 0 0 0 0 0 0 0 0 0 0
0 0 0 0 0 0 0 0 0 0 0 0 0 0 0 0 0 0 0 0 0 0 0 0 0 0 0 0 0 0 0 0 0 0 0 0 0 0 0 0 0 0 0 0 0 0 0 0 0 0 0 0 0 0
0 0 0 0 0 0 0 0 0 0 0 0 0 0 0 0 0 0 0 0 0 0 0 0 0 0 0 0 0 0 0 0 0 0 0 0 0 0 0 0 0 0 0 0 0 0 0 0 0 0 0 0 0 0
0 0 0 0 0 0 0 0 0 0 0 0 0 0 0 0 0 0 0 0 0 0 0 0 0 0 0 0 0 0 0 0 0 0 0 0 0 0 0 0 0 0 0 0 0 0 0 0 0 0 0 0 0 0
0 0 0 0 0 0 0 0 0 0 0 0 0 0 0 0 0 0 0 0 0 0 0 0 0 0 0 0 0 0 0 0 0 0 0 0 0 0 0 0 0 0 0 0 0 0 0 0 0 0 0 0 0 0
0 0 0 0 0 0 0 0 0 0 0 0 0 0 0 0 0 0 0 0 0 0 0 0 0 0 0 0 0 0 0 0 0 0 0 0 0 0 0 0 0 0 0 0 0 0 0 0 0 0 0 0 0 0
Wind_Speed_500mb
95 94 91 71 82 73 75 72 66 60 57 51 43 33 25 18 15 14 10 11 10 6 7 8 7 5 7 3 3 14 8 8 7 9 5 4 3 5 5 6 9 6 10 7 8 9 11 69 26 16 15 31 29 35
96 95 84 89 78 80 78 76 68 64 60 53 44 35 26 19 17 16 14 12 12 8 5 9 12 8 8 8 6 8 1 6 8 5 3 2 4 5 3 6 3 6 6 6 9 3 15 35 23 32 25 18 35 36
94 86 86 84 82 77 81 76 69 61 61 55 46 36 26 21 18 16 14 12 10 6 3 2 5 6 7 7 8 5 2 6 5 10 2 3 1 1 4 5 6 3 13 2 3 6 19 41 44 39 44 50 42 44
98 90 93 75 75 81 82 78 73 68 63 55 45 35 26 21 15 15 14 11 12 4 4 4 9 6 11 13 12 10 8 8 10 4 1 2 2 2 4 6 3 4 15 8 3 7 12 40 43 37 41 39 41 43
94 95 86 82 83 89 88 82 75 69 63 55 46 35 26 21 15 13 11 11 15 5 6 5 8 15 12 13 12 8 8 8 6 1 3 4 4 4 7 4 5 6 4 5 3 14 5 14 19 24 29 34 35 37
101 86 87 85 95 92 90 83 76 67 62 55 46 36 26 21 15 9 5 10 16 13 4 2 4 5 9 8 8 6 8 7 4 4 3 4 2 2 2 4 3 4 4 4 5 8 3 11 22 24 31 34 37 38
96 96 100 92 96 96 95 86 77 71 64 57 47 36 27 20 18 9 3 3 9 11 5 3 2 3 8 8 5 3 3 4 4 4 2 1 5 3 2 4 3 8 6 3 4 2 5 6 9 23 29 34 37 43
87 108 108 103 103 103 96 88 80 73 67 58 47 38 24 20 18 13 10 5 9 5 3 5 5 1 6 3 4 3 4 3 2 4 4 1 4 1 3 11 3 4 6 6 4 4 18 16 18 21 24 25 30 37
101 93 106 109 109 104 100 89 83 79 70 58 44 27 20 16 12 10 13 11 12 6 3 6 8 6 7 4 3 2 3 3 5 2 1 4 4 5 11 12 8 4 6 8 12 19 19 19 22 24 24 26 30 34
92 103 112 110 111 108 102 93 90 83 67 52 39 16 14 15 16 14 8 6 9 7 8 5 11 4 12 8 2 1 1 2 1 5 6 4 6 9 11 11 5 2 9 18 24 21 19 19 21 23 23 26 27 28
122 118 113 114 115 111 104 99 95 77 62 48 20 12 21 28 15 8 5 3 2 3 9 6 14 6 10 6 7 7 5 2 4 6 5 5 6 9 22 13 6 7 15 19 16 22 23 25 24 21 23 23 24 23
114 111 110 115 119 115 108 102 90 82 54 39 23 28 23 10 6 7 2 3 2 9 13 12 10 7 9 7 4 4 4 4 7 0 6 7 6 22 23 19 21 22 25 27 26 25 26 24 21 16 19 21 22 26
100 109 119 121 120 116 105 97 80 75 56 40 13 12 10 4 7 11 11 8 4 17 23 18 9 9 8 5 10 5 3 8 2 5 7 8 16 24 19 25 25 23 24 25 26 25 22 17 17 17 18 21 22 18
110 116 119 122 114 110 102 93 86 71 61 11 14 7 8 3 9 8 8 8 9 9 38 30 17 7 7 7 3 4 2 2 5 3 9 5 26 21 29 35 30 30 32 32 30 26 21 17 17 19 18 21 17 17
116 118 118 116 112 109 102 92 81 62 26 10 10 8 7 5 5 13 12 15 14 37 32 19 15 5 5 7 4 5 7 7 10 8 6 9 20 28 39 39 33 37 36 30 25 20 18 17 15 15 17 17 16 19
106 117 116 116 115 107 99 91 70 42 16 5 6 8 8 6 5 14 22 16 34 42 18 8 9 7 2 7 5 11 9 9 7 7 11 21 31 41 44 39 39 35 28 23 20 16 14 14 12 12 14 15 16 18
132 82 129 119 107 102 99 80 39 16 12 8 4 9 11 3 6 16 24 24 43 24 6 9 7 11 8 5 5 9 9 6 6 19 25 30 38 47 46 45 39 31 26 22 18 18 13 12 11 13 10 13 15 18
78 124 130 111 111 110 87 20 15 14 7 8 9 10 16 5 10 20 20 38 30 13 15 8 16 6 10 10 8 7 13 12 27 31 33 39 42 42 40 38 34 29 26 24 20 17 14 13 12 10 10 14 17 17
114 133 118 108 114 73 17 15 8 11 6 10 14 15 13 8 11 17 22 50 20 15 10 12 7 7 7 15 10 9 20 27 40 42 41 44 42 39 37 32 30 29 26 21 18 15 14 14 11 12 14 16 11 15
100 124 100 107 81 22 13 10 16 10 10 14 14 19 11 7 15 21 33 38 22 10 7 6 12 11 11 6 7 7 17 28 43 51 49 48 44 38 34 30 29 27 24 21 19 17 16 16 17 16 16 15 14 14
125 113 109 85 41 18 14 12 10 11 18 10 19 16 8 17 12 16 30 32 17 11 13 23 21 16 15 11 10 13 21 31 46 43 60 60 50 43 38 35 30 27 24 22 20 20 17 14 14 16 15 14 13 13
101 106 95 46 14 10 12 10 18 21 10 15 16 9 8 8 10 15 22 22 16 18 19 19 23 27 24 18 16 17 25 32 45 40 39 51 55 50 45 39 35 32 28 24 22 18 16 16 16 16 14 12 11 11
105 78 45 12 10 8 11 15 7 8 6 12 10 3 3 6 11 19 12 18 21 31 40 41 34 26 25 24 25 29 34 36 45 43 35 46 44 39 38 38 35 30 28 26 23 20 19 18 18 16 13 10 8 6
73 22 10 9 8 8 13 6 9 11 12 8 6 4 4 9 15 9 7 13 27 33 49 51 44 41 36 34 36 38 39 41 43 41 37 47 50 47 41 36 34 30 25 22 24 23 23 22 20 16 12 8 4 2
18 6 9 8 9 13 8 5 4 5 6 5 6 4 6 10 3 7 8 14 38 52 53 53 53 49 42 40 41 43 44 46 44 44 42 44 46 47 47 42 37 31 27 26 26 25 26 23 20 16 11 8 6 5
10 4 6 12 11 10 12 10 12 12 8 8 7 6 7 5 1 13 8 10 21 29 49 54 55 53 47 42 37 43 46 47 46 42 41 44 43 39 39 40 38 34 32 31 27 26 26 25 19 15 12 10 9 6
10 7 7 11 15 18 11 10 14 7 10 12 9 10 6 7 12 9 9 13 8 11 28 37 39 39 35 33 36 38 39 43 44 38 37 44 42 37 31 28 27 25 29 29 29 29 26 22 18 16 13 11 8 5
8 16 14 23 11 7 9 6 9 14 9 19 31 9 14 14 8 5 5 9 11 12 25 35 40 38 36 33 33 35 40 42 42 39 37 42 41 37 33 31 29 26 30 31 31 29 24 19 16 13 11 9 6 6
7 26 22 8 8 7 7 7 8 7 15 24 10 7 8 8 8 8 9 12 18 21 29 34 37 38 37 36 37 36 37 40 43 45 44 44 41 38 36 32 29 33 34 34 32 27 21 19 16 15 12 7 5 9
13 20 8 7 8 6 6 9 9 9 18 21 10 7 8 13 13 14 15 19 23 25 29 34 34 37 38 40 42 44 42 38 36 35 33 33 32 31 34 34 37 37 36 34 28 23 21 19 18 15 9 5 7 11
25 7 9 7 7 6 9 13 10 10 11 15 24 21 16 12 12 17 22 26 31 34 37 40 42 42 41 40 39 39 41 41 39 38 36 32 33 31 36 38 38 36 34 30 25 23 21 19 15 11 6 5 9 11
13 8 10 7 6 13 15 8 5 4 4 7 8 14 12 12 11 13 22 38 40 41 40 40 37 31 34 37 36 36 32 38 37 36 35 31 32 35 39 40 39 36 32 27 24 20 19 16 11 6 4 7 10 13
11 11 10 13 11 12 13 9 4 2 6 6 9 11 16 11 13 14 15 27 36 26 25 29 36 38 37 37 39 40 32 36 37 35 32 30 34 39 41 40 37 33 27 24 21 21 18 13 9 4 5 9 13 17
Wind_Direction_500mb
218 220 215 216 221 210 195 196 196 200 201 203 205 206 217 234 255 268 258 235 221 203 245 264 249 264 293 294 295 324 346 11 13 52 77 289 59 281 338 279 315 314 334 355 330 5 355 357 354 46 315 324 350 34
221 217 216 226 217 207 192 194 193 198 198 201 203 205 216 233 256 259 234 239 224 223 233 268 285 261 250 270 304 335 295 12 357 51 50 49 346 328 152 328 271 357 22 323 9 10 306 354 348 4 21 23 40 62
218 208 216 224 211 205 192 190 190 199 198 199 200 204 215 230 251 246 235 238 214 232 279 267 208 231 219 230 245 283 345 359 20 353 311 188 330 73 357 302 296 343 9 321 293 350 340 14 32 48 57 60 67 81
219 208 213 219 206 199 189 188 189 197 196 195 197 202 213 231 233 224 227 226 211 183 135 199 215 226 220 219 223 227 264 312 329 4 345 117 164 265 287 290 288 299 331 351 329 347 344 19 30 44 67 75 77 79
207 215 213 203 202 194 187 187 190 192 193 190 195 198 208 230 217 223 237 235 210 218 191 183 254 253 232 210 212 228 253 295 302 184 124 242 270 5 299 327 263 346 353 24 353 316 352 7 20 60 72 72 76 80
211 213 211 199 197 187 183 184 187 188 188 188 193 194 203 220 206 217 225 225 206 193 194 64 241 246 216 212 196 231 261 278 260 249 210 213 223 280 83 261 267 356 304 239 239 309 41 51 63 72 79 80 81 83
215 212 194 193 193 185 180 180 184 186 182 186 189 190 198 202 200 202 195 148 189 185 186 105 324 221 202 202 188 238 226 238 255 276 248 243 211 335 173 232 185 325 330 316 226 171 89 92 82 74 74 79 81 81
209 207 196 188 185 179 176 179 181 180 181 184 185 189 187 193 207 226 231 195 180 197 194 103 281 243 183 191 205 213 201 203 284 291 265 24 270 148 248 233 257 310 168 89 63 102 117 102 83 86 87 94 94 83
211 190 186 183 179 174 176 177 178 177 179 181 183 173 167 185 203 221 202 193 203 225 215 142 140 231 158 178 190 199 187 237 267 213 25 328 314 226 219 185 176 62 176 131 119 131 123 125 112 108 105 92 79 70
191 192 185 181 178 173 174 177 177 178 176 175 167 158 180 175 160 146 149 172 191 221 218 174 166 167 165 166 204 296 100 167 266 266 333 81 266 229 201 195 187 48 134 149 152 144 134 121 117 117 98 79 69 61
195 187 184 179 173 173 176 177 177 171 169 162 164 161 151 147 146 153 142 130 236 272 207 174 186 152 185 136 181 197 182 352 46 273 105 316 284 189 167 163 169 128 137 161 168 151 139 125 119 105 90 79 72 72
184 185 178 175 173 173 175 182 173 170 163 165 165 131 140 156 122 108 242 314 144 225 178 153 163 147 152 169 166 171 140 38 234 52 66 297 254 153 160 165 159 150 146 144 138 133 126 122 110 97 85 79 70 62
182 179 175 174 173 177 176 174 171 171 157 152 158 151 153 128 60 162 200 276 286 182 175 158 147 150 132 153 92 94 103 221 119 46 225 228 172 170 171 162 151 147 149 142 138 132 126 125 113 101 88 83 75 74
177 176 175 173 176 174 176 168 174 161 160 166 160 180 163 205 244 189 184 184 163 171 154 139 125 142 127 89 101 79 233 49 33 15 239 252 180 174 166 162 157 150 147 147 142 133 125 113 108 98 93 87 79 72
174 175 173 174 173 173 169 171 167 157 169 165 174 212 197 178 174 181 158 143 147 152 148 123 98 131 36 90 37 96 18 276 204 231 233 154 170 166 160 158 154 150 146 145 137 136 130 115 108 102 94 84 72 67
171 169 173 172 170 169 168 167 154 155 164 184 182 107 129 125 207 186 175 162 156 155 148 126 113 68 316 126 99 217 124 229 255 220 171 156 160 157 156 153 149 147 148 151 141 133 126 115 99 91 89 90 83 75
165 154 168 169 168 162 166 152 133 144 210 167 142 173 158 157 156 169 164 165 163 162 177 126 97 195 114 50 283 194 206 223 184 157 151 150 153 154 154 152 153 156 157 153 149 142 132 125 123 106 107 103 87 74
156 163 170 167 162 161 152 127 125 161 140 151 157 170 181 168 153 162 169 166 162 198 165 180 130 119 183 178 263 230 201 172 154 150 148 149 153 155 156 158 158 159 158 153 149 147 144 123 119 124 106 84 74 66
162 167 170 165 159 144 131 156 119 115 117 143 152 150 162 175 191 179 172 172 170 168 163 151 96 193 224 214 221 201 193 175 168 160 158 158 160 164 163 165 163 159 159 158 152 146 138 137 137 122 106 97 98 83
167 167 166 155 152 123 100 92 133 118 142 160 149 154 151 160 164 171 173 174 169 185 199 190 213 212 203 193 228 227 187 190 179 166 167 169 170 171 173 172 170 168 167 162 161 159 155 152 145 131 123 120 112 102
152 156 160 150 134 77 88 122 104 107 129 134 146 147 141 139 140 161 177 181 201 227 236 226 218 221 224 226 222 220 204 197 194 197 187 178 177 177 179 176 177 177 178 175 172 169 160 149 142 137 132 127 118 98
149 160 149 133 94 94 90 97 117 121 116 119 142 151 149 150 155 171 174 200 233 231 216 220 219 228 226 226 227 219 195 192 194 201 205 200 185 185 187 188 188 186 185 182 175 170 161 162 156 143 137 130 107 80
147 147 143 100 102 78 107 115 108 94 105 155 146 159 208 168 183 167 218 227 235 229 227 228 228 227 218 218 216 203 198 195 197 199 202 201 200 194 192 193 191 196 192 187 182 175 165 160 150 149 143 129 103 78
141 126 103 98 90 113 131 83 87 103 111 150 180 237 234 180 170 211 251 240 223 222 223 223 221 216 213 214 213 208 204 197 192 197 200 200 199 195 196 199 195 192 193 197 186 177 167 166 162 157 153 151 157 200
107 94 123 64 120 115 99 111 86 84 123 172 160 237 203 167 168 234 233 245 218 218 216 213 212 212 215 214 211 206 204 202 201 200 196 196 202 198 195 194 195 196 199 197 192 181 171 167 165 165 174 190 217 214
89 119 121 156 154 142 165 133 169 163 143 161 198 149 156 123 207 244 226 234 233 227 218 214 211 209 209 210 212 208 204 202 200 203 204 202 203 213 211 205 199 194 192 190 189 178 170 170 175 186 200 212 209 214
116 187 137 120 132 136 105 102 138 148 159 164 170 165 142 201 236 243 234 226 221 216 202 200 204 207 210 207 199 200 201 200 201 202 203 200 192 194 202 214 210 202 195 188 180 173 174 177 186 202 211 206 209 226
117 155 144 144 127 143 130 141 155 191 170 154 139 179 191 206 246 245 234 209 199 191 185 187 191 194 193 192 199 201 195 194 195 194 196 197 196 197 199 198 197 192 187 184 178 172 173 178 200 211 209 215 239 305
98 136 130 87 114 135 165 163 183 184 148 172 174 212 234 239 251 251 229 203 194 190 184 188 189 190 188 185 186 192 200 204 202 196 197 200 198 201 202 198 195 185 179 175 172 172 173 192 203 200 202 220 285 327
151 161 124 124 136 172 168 172 171 184 196 203 220 260 266 261 269 242 226 207 196 191 185 184 194 197 199 197 195 193 195 198 202 206 213 211 206 205 199 190 185 181 177 176 172 175 192 200 196 194 199 240 309 324
143 135 87 74 104 147 168 181 178 192 217 232 239 253 263 296 290 246 224 213 205 198 195 193 194 194 197 200 203 203 200 201 199 202 201 200 201 197 191 184 180 178 178 176 173 189 195 187 187 192 214 287 311 320
147 135 141 124 140 155 150 163 176 199 235 223 241 229 242 243 258 245 227 217 211 206 202 200 201 198 196 192 197 203 204 210 210 204 201 198 193 186 180 177 176 176 176 175 187 189 182 181 184 201 268 307 327 332
128 133 117 122 134 163 168 151 188 257 241 240 237 227 219 225 246 245 241 221 207 206 204 196 191 188 189 195 196 195 196 194 194 195 193 184 181 178 173 173 175 172 172 183 185 179 180 182 190 222 307 335 339 334
Wind_Speed_850mb
95 94 91 71 82 73 75 72 66 60 57 51 43 33 25 18 15 14 10 11 10 6 7 8 7 5 7 3 3 14 8 8 7 9 5 4 3 5 5 6 9 6 10 7 8 9 11 69 26 16 15 31 29 35
96 95 84 89 78 80 78 76 68 64 60 53 44 35 26 19 17 16 14 12 12 8 5 9 12 8 8 8 6 8 1 6 8 5 3 2 4 5 3 6 3 6 6 6 9 3 15 35 23 32 25 18 35 36
94 86 86 84 82 77 81 76 69 61 61 55 46 36 26 21 18 16 14 12 10 6 3 2 5 6 7 7 8 5 2 6 5 10 2 3 1 1 4 5 6 3 13 2 3 6 19 41 44 39 44 50 42 44
98 90 93 75 75 81 82 78 73 68 63 55 45 35 26 21 15 15 14 11 12 4 4 4 9 6 11 13 12 10 8 8 10 4 1 2 2 2 4 6 3 4 15 8 3 7 12 40 43 37 41 39 41 43
94 95 86 82 83 89 88 82 75 69 63 55 46 35 26 21 15 13 11 11 15 5 6 5 8 15 12 13 12 8 8 8 6 1 3 4 4 4 7 4 5 6 4 5 3 14 5 14 19 24 29 34 35 37
101 86 87 85 95 92 90 83 76 67 62 55 46 36 26 21 15 9 5 10 16 13 4 2 4 5 9 8 8 6 8 7 4 4 3 4 2 2 2 4 3 4 4 4 5 8 3 11 22 24 31 34 37 38
96 96 100 92 96 96 95 86 77 71 64 57 47 36 27 20 18 9 3 3 9 11 5 3 2 3 8 8 5 3 3 4 4 4 2 1 5 3 2 4 3 8 6 3 4 2 5 6 9 23 29 34 37 43
87 108 108 103 103 103 96 88 80 73 67 58 47 38 24 20 18 13 10 5 9 5 3 5 5 1 6 3 4 3 4 3 2 4 4 1 4 1 3 11 3 4 6 6 4 4 18 16 18 21 24 25 30 37
101 93 106 109 109 104 100 89 83 79 70 58 44 27 20 16 12 10 13 11 12 6 3 6 8 6 7 4 3 2 3 3 5 2 1 4 4 5 11 12 8 4 6 8 12 19 19 19 22 24 24 26 30 34
92 103 112 110 111 108 102 93 90 83 67 52 39 16 14 15 16 14 8 6 9 7 8 5 11 4 12 8 2 1 1 2 1 5 6 4 6 9 11 11 5 2 9 18 24 21 19 19 21 23 23 26 27 28
122 118 113 114 115 111 104 99 95 77 62 48 20 12 21 28 15 8 5 3 2 3 9 6 14 6 10 6 7 7 5 2 4 6 5 5 6 9 22 13 6 7 15 19 16 22 23 25 24 21 23 23 24 23
114 111 110 115 119 115 108 102 90 82 54 39 23 28 23 10 6 7 2 3 2 9 13 12 10 7 9 7 4 4 4 4 7 0 6 7 6 22 23 19 21 22 25 27 26 25 26 24 21 16 19 21 22 26
100 109 119 121 120 116 105 97 80 75 56 40 13 12 10 4 7 11 11 8 4 17 23 18 9 9 8 5 10 5 3 8 2 5 7 8 16 24 19 25 25 23 24 25 26 25 22 17 17 17 18 21 22 18
110 116 119 122 114 110 102 93 86 71 61 11 14 7 8 3 9 8 8 8 9 9 38 30 17 7 7 7 3 4 2 2 5 3 9 5 26 21 29 35 30 30 32 32 30 26 21 17 17 19 18 21 17 17
116 118 118 116 112 109 102 92 81 62 26 10 10 8 7 5 5 13 12 15 14 37 32 19 15 5 5 7 4 5 7 7 10 8 6 9 20 28 39 39 33 37 36 30 25 20 18 17 15 15 17 17 16 19
106 117 116 116 115 107 99 91 70 42 16 5 6 8 8 6 5 14 22 16 34 42 18 8 9 7 2 7 5 11 9 9 7 7 11 21 31 41 44 39 39 35 28 23 20 16 14 14 12 12 14 15 16 18
132 82 129 119 107 102 99 80 39 16 12 8 4 9 11 3 6 16 24 24 43 24 6 9 7 11 8 5 5 9 9 6 6 19 25 30 38 47 46 45 39 31 26 22 18 18 13 12 11 13 10 13 15 18
78 124 130 111 111 110 87 20 15 14 7 8 9 10 16 5 10 20 20 38 30 13 15 8 16 6 10 10 8 7 13 12 27 31 33 39 42 42 40 38 34 29 26 24 20 17 14 13 12 10 10 14 17 17
114 133 118 108 114 73 17 15 8 11 6 10 14 15 13 8 11 17 22 50 20 15 10 12 7 7 7 15 10 9 20 27 40 42 41 44 42 39 37 32 30 29 26 21 18 15 14 14 11 12 14 16 11 15
100 124 100 107 81 22 13 10 16 10 10 14 14 19 11 7 15 21 33 38 22 10 7 6 12 11 11 6 7 7 17 28 43 51 49 48 44 38 34 30 29 27 24 21 19 17 16 16 17 16 16 15 14 14
125 113 109 85 41 18 14 12 10 11 18 10 19 16 8 17 12 16 30 32 17 11 13 23 21 16 15 11 10 13 21 31 46 43 60 60 50 43 38 35 30 27 24 22 20 20 17 14 14 16 15 14 13 13
101 106 95 46 14 10 12 10 18 21 10 15 16 9 8 8 10 15 22 22 16 18 19 19 23 27 24 18 16 17 25 32 45 40 39 51 55 50 45 39 35 32 28 24 22 18 16 16 16 16 14 12 11 11
105 78 45 12 10 8 11 15 7 8 6 12 10 3 3 6 11 19 12 18 21 31 40 41 34 26 25 24 25 29 34 36 45 43 35 46 44 39 38 38 35 30 28 26 23 20 19 18 18 16 13 10 8 6
73 22 10 9 8 8 13 6 9 11 12 8 6 4 4 9 15 9 7 13 27 33 49 51 44 41 36 34 36 38 39 41 43 41 37 47 50 47 41 36 34 30 25 22 24 23 23 22 20 16 12 8 4 2
18 6 9 8 9 13 8 5 4 5 6 5 6 4 6 10 3 7 8 14 38 52 53 53 53 49 42 40 41 43 44 46 44 44 42 44 46 47 47 42 37 31 27 26 26 25 26 23 20 16 11 8 6 5
10 4 6 12 11 10 12 10 12 12 8 8 7 6 7 5 1 13 8 10 21 29 49 54 55 53 47 42 37 43 46 47 46 42 41 44 43 39 39 40 38 34 32 31 27 26 26 25 19 15 12 10 9 6
10 7 7 11 15 18 11 10 14 7 10 12 9 10 6 7 12 9 9 13 8 11 28 37 39 39 35 33 36 38 39 43 44 38 37 44 42 37 31 28 27 25 29 29 29 29 26 22 18 16 13 11 8 5
8 16 14 23 11 7 9 6 9 14 9 19 31 9 14 14 8 5 5 9 11 12 25 35 40 38 36 33 33 35 40 42 42 39 37 42 41 37 33 31 29 26 30 31 31 29 24 19 16 13 11 9 6 6
7 26 22 8 8 7 7 7 8 7 15 24 10 7 8 8 8 8 9 12 18 21 29 34 37 38 37 36 37 36 37 40 43 45 44 44 41 38 36 32 29 33 34 34 32 27 21 19 16 15 12 7 5 9
13 20 8 7 8 6 6 9 9 9 18 21 10 7 8 13 13 14 15 19 23 25 29 34 34 37 38 40 42 44 42 38 36 35 33 33 32 31 34 34 37 37 36 34 28 23 21 19 18 15 9 5 7 11
25 7 9 7 7 6 9 13 10 10 11 15 24 21 16 12 12 17 22 26 31 34 37 40 42 42 41 40 39 39 41 41 39 38 36 32 33 31 36 38 38 36 34 30 25 23 21 19 15 11 6 5 9 11
13 8 10 7 6 13 15 8 5 4 4 7 8 14 12 12 11 13 22 38 40 41 40 40 37 31 34 37 36 36 32 38 37 36 35 31 32 35 39 40 39 36 32 27 24 20 19 16 11 6 4 7 10 13
11 11 10 13 11 12 13 9 4 2 6 6 9 11 16 11 13 14 15 27 36 26 25 29 36 38 37 37 39 40 32 36 37 35 32 30 34 39 41 40 37 33 27 24 21 21 18 13 9 4 5 9 13 17
Wind_Direction_850mb
218 220 215 216 221 210 195 196 196 200 201 203 205 206 217 234 255 268 258 235 221 203 245 264 249 264 293 294 295 324 346 11 13 52 77 289 59 281 338 279 315 314 334 355 330 5 355 357 354 46 315 324 350 34
221 217 216 226 217 207 192 194 193 198 198 201 203 205 216 233 256 259 234 239 224 223 233 268 285 261 250 270 304 335 295 12 357 51 50 49 346 328 152 328 271 357 22 323 9 10 306 354 348 4 21 23 40 62
218 208 216 224 211 205 192 190 190 199 198 199 200 204 215 230 251 246 235 238 214 232 279 267 208 231 219 230 245 283 345 359 20 353 311 188 330 73 357 302 296 343 9 321 293 350 340 14 32 48 57 60 67 81
219 208 213 219 206 199 189 188 189 197 196 195 197 202 213 231 233 224 227 226 211 183 135 199 215 226 220 219 223 227 264 312 329 4 345 117 164 265 287 290 288 299 331 351 329 347 344 19 30 44 67 75 77 79
207 215 213 203 202 194 187 187 190 192 193 190 195 198 208 230 217 223 237 235 210 218 191 183 254 253 232 210 212 228 253 295 302 184 124 242 270 5 299 327 263 346 353 24 353 316 352 7 20 60 72 72 76 80
211 213 211 199 197 187 183 184 187 188 188 188 193 194 203 220 206 217 225 225 206 193 194 64 241 246 216 212 196 231 261 278 260 249 210 213 223 280 83 261 267 356 304 239 239 309 41 51 63 72 79 80 81 83
215 212 194 193 193 185 180 180 184 186 182 186 189 190 198 202 200 202 195 148 189 185 186 105 324 221 202 202 188 238 226 238 255 276 248 243 211 335 173 232 185 325 330 316 226 171 89 92 82 74 74 79 81 81
209 207 196 188 185 179 176 179 181 180 181 184 185 189 187 193 207 226 231 195 180 197 194 103 281 243 183 191 205 213 201 203 284 291 265 24 270 148 248 233 257 310 168 89 63 102 117 102 83 86 87 94 94 83
211 190 186 183 179 174 176 177 178 177 179 181 183 173 167 185 203 221 202 193 203 225 215 142 140 231 158 178 190 199 187 237 267 213 25 328 314 226 219 185 176 62 176 131 119 131 123 125 112 108 105 92 79 70
191 192 185 181 178 173 174 177 177 178 176 175 167 158 180 175 160 146 149 172 191 221 218 174 166 167 165 166 204 296 100 167 266 266 333 81 266 229 201 195 187 48 134 149 152 144 134 121 117 117 98 79 69 61
195 187 184 179 173 173 176 177 177 171 169 162 164 161 151 147 146 153 142 130 236 272 207 174 186 152 185 136 181 197 182 352 46 273 105 316 284 189 167 163 169 128 137 161 168 151 139 125 119 105 90 79 72 72
184 185 178 175 173 173 175 182 173 170 163 165 165 131 140 156 122 108 242 314 144 225 178 153 163 147 152 169 166 171 140 38 234 52 66 297 254 153 160 165 159 150 146 144 138 133 126 122 110 97 85 79 70 62
182 179 175 174 173 177 176 174 171 171 157 152 158 151 153 128 60 162 200 276 286 182 175 158 147 150 132 153 92 94 103 221 119 46 225 228 172 170 171 162 151 147 149 142 138 132 126 125 113 101 88 83 75 74
177 176 175 173 176 174 176 168 174 161 160 166 160 180 163 205 244 189 184 184 163 171 154 139 125 142 127 89 101 79 233 49 33 15 239 252 180 174 166 162 157 150 147 147 142 133 125 113 108 98 93 87 79 72
174 175 173 174 173 173 169 171 167 157 169 165 174 212 197 178 174 181 158 143 147 152 148 123 98 131 36 90 37 96 18 276 204 231 233 154 170 166 160 158 154 150 146 145 137 136 130 115 108 102 94 84 72 67
171 169 173 172 170 169 168 167 154 155 164 184 182 107 129 125 207 186 175 162 156 155 148 126 113 68 316 126 99 217 124 229 255 220 171 156 160 157 156 153 149 147 148 151 141 133 126 115 99 91 89 90 83 75
165 154 168 169 168 162 166 152 133 144 210 167 142 173 158 157 156 169 164 165 163 162 177 126 97 195 114 50 283 194 206 223 184 157 151 150 153 154 154 152 153 156 157 153 149 142 132 125 123 106 107 103 87 74
156 163 170 167 162 161 152 127 125 161 140 151 157 170 181 168 153 162 169 166 162 198 165 180 130 119 183 178 263 230 201 172 154 150 148 149 153 155 156 158 158 159 158 153 149 147 144 123 119 124 106 84 74 66
162 167 170 165 159 144 131 156 119 115 117 143 152 150 162 175 191 179 172 172 170 168 163 151 96 193 224 214 221 201 193 175 168 160 158 158 160 164 163 165 163 159 159 158 152 146 138 137 137 122 106 97 98 83
167 167 166 155 152 123 100 92 133 118 142 160 149 154 151 160 164 171 173 174 169 185 199 190 213 212 203 193 228 227 187 190 179 166 167 169 170 171 173 172 170 168 167 162 161 159 155 152 145 131 123 120 112 102
152 156 160 150 134 77 88 122 104 107 129 134 146 147 141 139 140 161 177 181 201 227 236 226 218 221 224 226 222 220 204 197 194 197 187 178 177 177 179 176 177 177 178 175 172 169 160 149 142 137 132 127 118 98
149 160 149 133 94 94 90 97 117 121 116 119 142 151 149 150 155 171 174 200 233 231 216 220 219 228 226 226 227 219 195 192 194 201 205 200 185 185 187 188 188 186 185 182 175 170 161 162 156 143 137 130 107 80
147 147 143 100 102 78 107 115 108 94 105 155 146 159 208 168 183 167 218 227 235 229 227 228 228 227 218 218 216 203 198 195 197 199 202 201 200 194 192 193 191 196 192 187 182 175 165 160 150 149 143 129 103 78
141 126 103 98 90 113 131 83 87 103 111 150 180 237 234 180 170 211 251 240 223 222 223 223 221 216 213 214 213 208 204 197 192 197 200 200 199 195 196 199 195 192 193 197 186 177 167 166 162 157 153 151 157 200
107 94 123 64 120 115 99 111 86 84 123 172 160 237 203 167 168 234 233 245 218 218 216 213 212 212 215 214 211 206 204 202 201 200 196 196 202 198 195 194 195 196 199 197 192 181 171 167 165 165 174 190 217 214
89 119 121 156 154 142 165 133 169 163 143 161 198 149 156 123 207 244 226 234 233 227 218 214 211 209 209 210 212 208 204 202 200 203 204 202 203 213 211 205 199 194 192 190 189 178 170 170 175 186 200 212 209 214
116 187 137 120 132 136 105 102 138 148 159 164 170 165 142 201 236 243 234 226 221 216 202 200 204 207 210 207 199 200 201 200 201 202 203 200 192 194 202 214 210 202 195 188 180 173 174 177 186 202 211 206 209 226
117 155 144 144 127 143 130 141 155 191 170 154 139 179 191 206 246 245 234 209 199 191 185 187 191 194 193 192 199 201 195 194 195 194 196 197 196 197 199 198 197 192 187 184 178 172 173 178 200 211 209 215 239 305
98 136 130 87 114 135 165 163 183 184 148 172 174 212 234 239 251 251 229 203 194 190 184 188 189 190 188 185 186 192 200 204 202 196 197 200 198 201 202 198 195 185 179 175 172 172 173 192 203 200 202 220 285 327
151 161 124 124 136 172 168 172 171 184 196 203 220 260 266 261 269 242 226 207 196 191 185 184 194 197 199 197 195 193 195 198 202 206 213 211 206 205 199 190 185 181 177 176 172 175 192 200 196 194 199 240 309 324
143 135 87 74 104 147 168 181 178 192 217 232 239 253 263 296 290 246 224 213 205 198 195 193 194 194 197 200 203 203 200 201 199 202 201 200 201 197 191 184 180 178 178 176 173 189 195 187 187 192 214 287 311 320
147 135 141 124 140 155 150 163 176 199 235 223 241 229 242 243 258 245 227 217 211 206 202 200 201 198 196 192 197 203 204 210 210 204 201 198 193 186 180 177 176 176 176 175 187 189 182 181 184 201 268 307 327 332
128 133 117 122 134 163 168 151 188 257 241 240 237 227 219 225 246 245 241 221 207 206 204 196 191 188 189 195 196 195 196 194 194 195 193 184 181 178 173 173 175 172 172 183 185 179 180 182 190 222 307 335 339 334